DW6157 Weather Reports


time (UTC)temp
C
wind
direction
speed
KPH
gust
KPH
rain 1hr
cm
rain 24hr
cm
rain mn
cm
humidity
%
barometer
mb
20260507074542 10 39 0.0 11.3 0.00 0.00 0.00 41 1016.5
20260507073053 10 47 6.4 11.3 0.00 0.00 0.00 42 1016.4
20260507071536 10 56 3.2 11.3 0.00 0.00 0.00 44 1016.3
20260507070041 10 48 3.2 11.3 0.00 0.00 0.00 44 1016.4
20260507064531 9 13 4.8 11.3 0.00 0.00 0.00 44 1016.2
20260507063027 8 42 6.4 14.5 0.00 0.00 0.00 46 1016.1
20260507061531 8 31 1.6 12.9 0.00 0.00 0.00 49 1016.0
20260507060029 7 353 3.2 9.7 0.00 0.00 0.00 51 1015.8
20260507054522 6 311 3.2 8.0 0.00 0.00 0.00 54 1015.8
20260507053016 6 300 3.2 11.3 0.00 0.00 0.00 56 1015.8
20260507051511 5 306 0.0 11.3 0.00 0.00 0.00 58 1015.7
20260507050020 5 340 0.0 9.7 0.00 0.00 0.00 59 1015.6
20260507044519 5 322 0.0 11.3 0.00 0.00 0.00 59 1015.5
20260507043004 4 297 0.0 0.0 0.00 0.00 0.00 63 1015.5
20260507041501 2 297 0.0 0.0 0.00 0.00 0.00 69 1015.4
20260507040100 1 290 0.0 0.0 0.00 0.00 0.00 72 1015.1
20260507034604 1 290 0.0 0.0 0.00 0.00 0.00 71 1015.0
20260507033059 1 290 0.0 0.0 0.00 0.00 0.00 70 1014.9
20260507031555 1 290 0.0 0.0 0.00 0.00 0.00 69 1014.9
20260507030106 1 290 0.0 0.0 0.00 0.00 0.00 69 1014.9
20260507024556 1 290 0.0 0.0 0.00 0.00 0.00 69 1014.7
20260507023052 1 290 0.0 0.0 0.00 0.00 0.00 68 1014.5
20260507021607 1 290 0.0 0.0 0.00 0.00 0.00 68 1014.5
20260507020054 1 291 0.0 0.0 0.00 0.00 0.00 69 1014.4
20260507014608 1 291 0.0 0.0 0.00 0.00 0.00 68 1014.3
20260507013051 1 291 0.0 0.0 0.00 0.00 0.00 68 1014.2
20260507011544 1 291 0.0 3.2 0.00 0.00 0.00 67 1014.1
20260507010047 2 291 0.0 0.0 0.00 0.00 0.00 68 1014.0
20260507004543 2 291 0.0 3.2 0.00 0.00 0.00 66 1013.9
20260507003038 2 293 0.0 3.2 0.00 0.00 0.00 66 1013.9
20260507001536 2 295 0.0 1.6 0.00 0.00 0.00 67 1013.7
20260507000034 2 295 0.0 4.8 0.00 0.00 0.00 65 1013.7
20260506234533 2 316 0.0 1.6 0.00 0.00 0.00 65 1013.5
20260506233030 3 320 0.0 0.0 0.00 0.00 0.00 65 1013.5
20260506231528 3 320 0.0 0.0 0.00 0.00 0.00 66 1013.4
20260506230026 3 320 0.0 0.0 0.00 0.00 0.00 66 1013.3
20260506224525 3 320 0.0 0.0 0.00 0.00 0.00 66 1013.2
20260506223023 3 320 0.0 1.6 0.00 0.00 0.00 65 1013.2
20260506221524 3 324 0.0 1.6 0.00 0.00 0.00 66 1013.0
20260506220026 3 256 0.0 0.0 0.00 0.00 0.00 70 1012.9
20260506214519 3 245 0.0 0.0 0.00 0.00 0.00 71 1012.7
20260506213018 3 245 0.0 0.0 0.00 0.00 0.00 73 1012.6
20260506211516 3 245 0.0 0.0 0.00 0.00 0.00 74 1012.5
20260506210018 3 245 0.0 0.0 0.00 0.00 0.00 73 1012.4
20260506204518 5 245 0.0 0.0 0.00 0.00 0.00 72 1012.3
20260506203013 5 245 0.0 0.0 0.00 0.00 0.00 70 1012.2
20260506201513 5 245 0.0 0.0 0.00 0.00 0.00 71 1012.1
20260506200021 6 244 0.0 0.0 0.00 0.00 0.00 68 1012.1
20260506194513 6 243 0.0 0.0 0.00 0.00 0.00 66 1012.0
20260506193014 7 243 0.0 0.0 0.00 0.00 0.00 62 1011.9
20260506191613 7 243 0.0 0.0 0.00 0.00 0.00 60 1011.9
20260506190010 8 243 0.0 0.0 0.00 0.00 0.00 57 1011.8
20260506184510 8 257 0.0 3.2 0.00 0.00 0.00 56 1011.8
20260506183009 8 237 0.0 3.2 0.00 0.00 0.00 55 1011.8
20260506181509 9 229 0.0 6.4 0.00 0.00 0.00 57 1011.7
20260506180008 10 210 4.8 9.7 0.00 0.00 0.00 57 1011.4
20260506174507 10 215 3.2 6.4 0.00 0.00 0.00 58 1011.5
20260506173005 10 218 4.8 9.7 0.00 0.00 0.00 56 1011.6
20260506171507 11 200 8.0 14.5 0.00 0.00 0.00 52 1011.7
20260506170005 11 229 4.8 14.5 0.00 0.00 0.00 51 1011.6
20260506164507 11 210 6.4 12.9 0.00 0.00 0.00 51 1011.7
20260506163006 11 210 9.7 16.1 0.00 0.00 0.00 48 1011.7
20260506161504 11 214 8.0 14.5 0.00 0.00 0.00 50 1011.6
20260506160007 10 185 6.4 14.5 0.00 0.00 0.00 47 1011.5
20260506154502 11 200 9.7 17.7 0.00 0.00 0.00 43 1011.6
20260506153001 12 226 9.7 16.1 0.00 0.00 0.00 39 1011.6
20260506151602 12 210 8.0 14.5 0.00 0.00 0.00 42 1011.6
20260506144601 12 205 9.7 17.7 0.00 0.00 0.00 38 1011.8
20260506143057 12 185 8.0 17.7 0.00 0.00 0.00 41 1011.8
20260506141558 13 200 8.0 16.1 0.00 0.00 0.00 42 1011.8
20260506134555 13 191 4.8 14.5 0.00 0.00 0.00 41 1011.9
20260506133100 13 196 6.4 16.1 0.00 0.00 0.00 46 1011.9
20260506131556 12 210 8.0 16.1 0.00 0.00 0.00 45 1012.1
20260506130055 12 239 6.4 16.1 0.00 0.00 0.00 46 1012.1
20260506124554 12 205 8.0 17.7 0.00 0.00 0.00 47 1012.2
20260506123052 12 200 9.7 16.1 0.00 0.00 0.00 45 1012.3
20260506121551 12 231 6.4 16.1 0.00 0.00 0.00 47 1012.4
20260506120107 12 210 6.4 16.1 0.00 0.00 0.00 50 1012.5
20260506114603 12 99 3.2 11.3 0.00 0.00 0.00 41 1012.5
20260506113051 12 205 3.2 12.9 0.00 0.00 0.00 48 1012.5
20260506111553 13 210 3.2 14.5 0.00 0.00 0.00 47 1012.6
20260506110046 12 170 3.2 12.9 0.00 0.00 0.00 50 1012.6
20260506104545 12 233 1.6 14.5 0.00 0.00 0.00 48 1012.6
20260506103041 11 143 1.6 16.1 0.00 0.00 0.00 50 1012.6
20260506101540 11 157 0.0 11.3 0.00 0.00 0.00 52 1012.6
20260506100041 11 106 4.8 14.5 0.00 0.00 0.00 46 1012.8
20260506094544 12 166 4.8 12.9 0.00 0.00 0.00 48 1012.8
20260506093055 11 49 0.0 6.4 0.00 0.00 0.00 36 1012.7
20260506091534 10 58 3.2 8.0 0.00 0.00 0.00 36 1012.8
20260506090038 11 310 3.2 11.3 0.00 0.00 0.00 39 1012.7
20260506084530 10 95 0.0 4.8 0.00 0.00 0.00 42 1012.8
20260506083029 10 4 0.0 11.3 0.00 0.00 0.00 42 1012.9
20260506081526 10 338 1.6 9.7 0.00 0.00 0.00 45 1013.1